MEV-2

Last updated on Sun Jul 06 2025 00:02:46 GMT+0000 (Coordinated Universal Time)

1 46113U 20056B 25186.56445672 .00000005 00000+0 00000+0 0 9992 2 46113 0.0271 281.8559 0000833 194.5726 9.5990 1.00269854 18739
UTC large
Height (km)
Speed (km/s)
/
Latitude / Longitude
Inclination (degrees)
Orbital Period (minutes)
Azimuth
Elevation
Range (km)
Doppler Factor

Next 0 passes for location: London (51.5072 / 0.1276)

Sorry there are no passes over London.